Total_Precipitation_Accumulation
2.46 2.71 2.55 2.32 2.41 2.47 2.66 2.97 3.01 2.53 2.14 1.98 1.93 1.96 2.22 2.52 2.93 2.61 2.37 2.51 2.29 2.13 2.05 2.01 1.98 2.03 2.14 2.20 2.26 2.35 2.49 2.66 2.82 3.06 3.49 4.00 4.49 4.92
2.52 2.73 2.68 2.49 2.58 2.56 2.67 2.90 3.12 2.98 2.43 1.97 2.02 2.04 2.18 2.08 2.54 2.35 2.38 2.53 2.26 2.10 2.04 2.02 1.97 1.96 1.98 2.05 2.08 2.04 1.98 2.03 2.08 2.16 2.34 2.56 2.88 3.29
2.43 2.56 2.62 2.85 2.87 2.82 2.97 3.02 3.07 3.13 2.74 2.18 2.19 2.32 2.37 2.24 2.24 2.17 2.12 2.15 2.05 2.15 2.00 1.96 1.92 1.82 1.72 1.67 1.72 1.76 1.74 1.74 1.75 1.81 1.88 1.90 1.96 2.16
2.51 2.77 2.69 2.84 2.92 3.00 3.17 2.96 3.02 3.35 3.19 2.72 2.62 2.74 2.67 2.47 2.40 2.30 1.97 1.83 1.85 2.14 1.99 1.88 1.83 1.76 1.72 1.58 1.53 1.56 1.57 1.59 1.58 1.61 1.65 1.61 1.62 1.73
2.65 2.77 2.85 3.18 3.01 3.06 3.07 2.94 2.97 3.21 3.41 3.09 2.82 2.96 2.85 2.62 2.64 2.33 2.11 2.15 1.87 1.95 2.02 1.88 1.77 1.73 1.70 1.66 1.57 1.51 1.46 1.43 1.37 1.40 1.50 1.57 1.60 1.62
2.76 2.83 2.88 3.03 3.11 3.30 3.30 3.33 3.47 3.63 3.75 3.50 3.21 3.24 3.22 3.16 3.04 2.61 2.47 2.33 2.15 1.91 2.04 1.93 1.83 1.76 1.71 1.62 1.52 1.49 1.46 1.42 1.40 1.37 1.38 1.42 1.48 1.55
2.88 2.83 2.81 3.03 3.16 3.33 3.16 3.35 3.70 3.85 3.92 3.88 3.74 3.84 3.72 3.64 3.24 2.87 2.75 2.62 2.39 2.07 2.02 1.88 1.84 1.71 1.69 1.73 1.68 1.60 1.54 1.49 1.47 1.48 1.46 1.41 1.41 1.46
2.94 2.96 2.91 2.92 2.84 2.86 2.88 3.03 3.30 3.47 3.63 3.82 3.86 3.88 3.81 3.74 3.58 3.32 2.98 2.75 2.44 2.17 2.28 2.10 1.97 1.87 1.70 1.62 1.79 1.75 1.64 1.55 1.49 1.48 1.49 1.50 1.51 1.56
2.93 2.97 2.71 2.54 2.70 2.52 2.67 2.78 2.75 2.78 2.89 3.17 3.30 3.25 3.51 3.72 3.74 3.30 2.96 2.67 2.41 2.29 2.43 2.19 1.98 1.88 1.77 1.76 1.91 1.75 1.67 1.61 1.53 1.47 1.46 1.46 1.50 1.55
2.65 2.72 2.70 2.57 2.53 2.65 2.65 2.51 2.26 2.18 2.32 2.32 2.34 2.55 2.92 3.37 3.55 3.40 3.41 3.12 2.72 2.46 2.45 2.27 1.99 1.84 1.70 1.69 1.90 1.79 1.65 1.62 1.60 1.56 1.48 1.43 1.42 1.45
2.61 2.65 2.62 2.43 2.56 2.53 2.45 2.36 2.21 2.03 2.05 2.12 2.13 2.33 2.64 2.92 3.21 3.30 3.26 3.23 2.81 2.42 2.33 2.24 2.01 1.99 1.86 1.68 1.67 1.77 1.65 1.59 1.61 1.62 1.59 1.54 1.50 1.49
2.68 2.73 2.71 2.48 2.54 2.48 2.34 2.31 2.17 2.08 2.12 2.08 2.08 2.10 2.13 2.47 2.85 2.84 2.89 3.02 2.81 2.54 2.27 2.30 2.11 2.19 2.09 1.68 1.48 1.47 1.48 1.58 1.61 1.53 1.50 1.52 1.56 1.37
2.59 2.56 2.60 2.65 2.38 2.20 2.09 2.02 2.08 2.22 2.29 2.15 2.04 2.00 2.05 2.16 2.35 2.42 2.52 2.66 2.64 2.38 2.16 2.34 2.24 2.25 2.16 1.79 1.56 1.50 1.47 1.42 1.40 1.38 1.41 1.48 1.52 1.35
2.44 2.46 2.52 2.55 2.25 2.00 1.76 1.69 1.79 1.84 1.96 2.03 1.95 1.91 1.91 1.91 2.09 2.39 2.56 2.61 2.59 2.45 2.38 2.39 2.32 2.29 2.27 2.03 1.73 1.54 1.48 1.41 1.36 1.28 1.24 1.50 1.55 1.56
2.13 2.37 2.43 2.29 2.09 1.93 1.81 1.74 1.66 1.57 1.68 1.82 1.71 1.71 1.81 1.92 2.15 2.48 2.72 2.90 2.82 2.52 2.34 2.35 2.33 2.30 2.28 2.02 1.71 1.55 1.54 1.48 1.43 1.45 1.43 1.41 1.42 1.48
2.04 2.26 2.36 2.35 2.19 2.04 1.92 1.75 1.55 1.51 1.55 1.64 1.75 1.75 1.89 2.00 2.10 2.25 2.57 2.77 2.87 2.65 2.35 2.29 2.32 2.38 2.26 2.04 1.86 1.66 1.56 1.52 1.45 1.49 1.57 1.59 1.57 1.56
2.14 2.22 2.37 2.41 2.37 2.27 2.08 1.94 1.80 1.67 1.58 1.59 1.74 1.77 1.79 1.84 1.84 1.90 2.17 2.38 2.41 2.31 2.26 2.27 2.36 2.46 2.49 2.41 2.14 1.74 1.59 1.49 1.47 1.64 1.75 1.67 1.56 1.53
2.02 2.07 2.33 2.39 2.41 2.39 2.26 2.07 1.90 1.79 1.71 1.71 1.78 1.80 1.78 1.83 1.90 1.93 2.06 2.26 2.29 2.21 2.16 2.14 2.40 2.65 2.66 2.52 2.22 1.97 1.73 1.60 1.64 1.84 1.91 1.80 1.63 1.53
1.64 1.76 2.07 2.26 2.34 2.36 2.28 2.06 1.90 1.93 2.01 1.94 1.86 1.83 1.85 1.87 1.99 2.03 2.11 2.26 2.34 2.33 2.24 2.27 2.44 2.61 2.55 2.27 1.99 1.80 1.81 1.76 1.81 1.83 1.84 1.79 1.70 1.61
1.53 1.65 1.90 2.16 2.27 2.32 2.32 2.26 2.14 2.15 2.20 2.13 2.02 1.95 1.94 1.97 1.97 2.00 2.06 2.17 2.25 2.34 2.27 2.22 2.26 2.28 2.27 2.18 2.04 1.79 1.75 1.91 1.99 1.93 1.84 1.87 1.82 1.83
1.70 1.71 1.80 1.99 2.17 2.28 2.31 2.33 2.31 2.33 2.35 2.37 2.27 2.18 2.14 2.16 2.08 1.98 1.99 2.13 2.15 2.17 2.08 1.89 1.91 2.18 2.38 2.56 2.33 1.85 1.71 1.81 1.90 1.95 1.92 1.99 1.92 1.86
1.79 1.80 1.86 1.99 2.17 2.33 2.38 2.37 2.44 2.42 2.40 2.36 2.29 2.24 2.18 2.17 2.17 2.12 2.12 2.16 2.12 2.06 2.06 2.00 2.09 2.34 2.44 2.39 2.10 1.88 1.79 1.81 1.91 1.92 1.84 1.80 1.78 1.71
2.01 2.00 2.07 2.21 2.29 2.35 2.32 2.25 2.23 2.28 2.25 2.20 2.18 2.16 2.12 2.09 2.11 2.18 2.17 2.21 2.19 2.18 2.25 2.31 2.33 2.32 2.25 2.21 2.12 2.00 1.93 1.91 1.91 1.84 1.64 1.58 1.44 1.34